Preview of NWS' New Version of Forecast
This preview is not operational and should not be used for support decisions.

Regional Weather Roundup (RWR)

Issued by National Weather Service (NWS)

                            
000
ASUS45 KBOU 182210
RWRCO 

WEATHER ROUNDUP FOR COLORADO
NATIONAL WEATHER SERVICE DENVER/BOULDER CO
400 PM MDT THU APR 18 2019

NOTE: "FAIR" INDICATES FEW OR NO CLOUDS BELOW 12000 FEET WITH NO
SIGNIFICANT WEATHER AND/OR OBSTRUCTIONS TO VISIBILITY.

COZ001>005-013-030-031-182300-
...NORTHWEST COLORADO...
  
CITY           SKY/WX    TMP DP  RH WIND       PRES   REMARKS
CRAIG          PTSUNNY   62  27  26 W12G18    30.25F                  
HAYDEN         FAIR      58  25  28 NW9G24    30.28F                  
MEEKER         FAIR      61  25  25 W12G21    30.26F                  
RANGELY        FAIR      65  31  28 W10G20    30.24F                  
RABBIT EARS PA MOCLDY    32  30  93 NW12G24   30.37S WCI  23          
STEAMBOAT SPGS FAIR      52  27  38 NW12      30.27F                  
WALDEN         PTSUNNY   50  21  32 NW15G21   30.29F                  
$$

COZ006>008-011-182300-
...WEST CENTRAL VALLEYS...
  
CITY           SKY/WX    TMP DP  RH WIND       PRES   REMARKS
GRAND JUNCTION FAIR      69  28  21 W9        30.20F                  
MONTROSE       FAIR      63  24  22 MISG      30.27F                  
EAGLE          FAIR      63  19  18 N12G22    30.25F                  
RIFLE          FAIR      65  25  22 VRB6G21   30.22F                  
DELTA          FAIR      71  24  17 W16       30.22F                  
NUCLA          FAIR      68  19  15 NW10G23   30.27F                  
$$

COZ017>023-064>068-182300-
...SOUTHWEST COLORADO...
  
CITY           SKY/WX    TMP DP  RH WIND       PRES   REMARKS
DURANGO        FAIR      70   8   9 N18G30    30.16F                  
CORTEZ         FAIR      70  23  17 N15G23    30.22F                  
PAGOSA SPRINGS FAIR      64  12  13 N9G18     30.23F                  
TELLURIDE      FAIR      50  14  23 NW8       30.38S                  
WOLF CREEK PAS FAIR      37  10  32 NW12G20   30.44F                  
$$

COZ009-010-012-014-032>034-037-058>063-182300-
...CENTRAL COLORADO...
  
CITY           SKY/WX    TMP DP  RH WIND       PRES   REMARKS
ASPEN          PTSUNNY   55  21  26 NW12G25   30.27F                  
BUENA VISTA    FAIR      59   9  14 NW30G40   30.20S                  
COPPER MTN     PTSUNNY   34  21  60 MISG      30.37F                  
BERTHOUD PASS  CLOUDY    23  12  63 NW40G56   30.29S WCI   3          
COTTONWOOD PAS FAIR      48  10  21 N8G25     30.26R                  
GUNNISON       FAIR      56  19  23 N13G20    30.27F                  
GRANBY         FAIR      51  23  32 NW18G32   30.27S                  
KREMMLING      FAIR      54  25  32 NW17G26   30.28S                  
LEADVILLE      FAIR      43  16  33 N18G29    30.31F                  
MONARCH PASS   FAIR      37  14  38 N13G23    30.50R                  
SALIDA         FAIR      64  10  11 N23G30    30.25S                  
SUNLIGHT       FAIR      39  21  48 SW5G20    30.44F                  
WILKERSON PASS FAIR      37  14  38 N13G36    30.33F                  
$$

COZ069>075-182300-
...SAN LUIS VALLEY/SANGRE DE CRISTO MOUNTAINS...
  
CITY           SKY/WX    TMP DP  RH WIND       PRES   REMARKS
ALAMOSA        FAIR      62  10  13 NW23G41   30.18F                  
DEL NORTE      FAIR      59  16  18 N16G26    30.24F                  
LA VETA PASS   NOT AVBL                                               
SAGUACHE       FAIR      59  18  20 N14G32    30.21F                  
$$

COZ035-036-038>040-182300-
...NORTHERN COLORADO FRONT RANGE...
  
CITY           SKY/WX    TMP DP  RH WIND       PRES   REMARKS
DENVER INTL AP FAIR      61  22  22 N28G39    30.14F                  
AURORA         PTSUNNY   60  24  25 N14G24    30.15F                  
FRONT RANGE AP MOSUNNY   61  25  25 N23G32    30.15F                  
ERIE MUNI ARPT PTSUNNY   62  22  22 SE3       30.18S                  
BOULDER MUN AP FAIR      61  28  29 SE6       30.13S                  
CENTENNIAL     PTSUNNY   58  25  28 NE10G17   30.17F                  
BROOMFIELD     MOSUNNY   61  27  27 SE7       30.15F                  
FORT COLLINS   FAIR      65  25  22 N31G39    30.09F                  
LONGMONT       PTSUNNY   66  27  23 SE6       30.13F                  
$$

COZ041-046-047-076>085-087-088-182300-
...PIKES PEAK/PALMER DIVIDE AND SOUTHERN FOOTHILLS...
  
CITY           SKY/WX    TMP DP  RH WIND       PRES   REMARKS
COLO. SPRINGS  FAIR      58  28  32 N24G37    30.14F                  
A. F. ACADEMY  FAIR      54  27  35 N22G35    30.15F                  
SCHRIEVER AFB  NOT AVBL                                               
CHEYENNE MTN   FAIR      51  30  44 N14G20    30.13S                  
ELLICOTT         N/A    N/A N/A N/A N33G44    30.14F                  
FALCON         FAIR      53  24  32 N23G32    30.18F                  
FORT CARSON    FAIR      60  31  33 N14G21    30.15F                  
LIMON          FAIR      56  22  26 N31G44    30.14F                  
MONUMENT HILL  PTSUNNY   48  27  43 N20G32    30.22S                  
CANON CITY     NOT AVBL                                               
WALSENBURG     NOT AVBL                                               
TRINIDAD       FAIR      58  34  40 NE12G24   30.16R                  
$$

COZ042>045-048>051-090-091-182300-
...NORTHEAST COLORADO...
  
CITY           SKY/WX    TMP DP  RH WIND       PRES   REMARKS
GREELEY ARPT   NOT AVBL                                               
AKRON          CLOUDY    57  25  29 N29G48    30.11F                  
BURLINGTON     PTSUNNY   56  32  40 N24G40    30.10F                  
WRAY           PTSUNNY   55  30  38 N28G33    30.10S                  
YUMA           NOT AVBL                                               
STERLING       PTSUNNY   61  27  27 N29G41    30.10S                  
HOLYOKE        FAIR      57  32  38 N26       30.10F                  
FORT MORGAN    NOT AVBL                                               
$$

COZ086-089-092>099-182300-
...SOUTHEAST COLORADO...
  
CITY           SKY/WX    TMP DP  RH WIND       PRES   REMARKS
PUEBLO         FAIR      63  33  32 NE10G20   30.12F                  
LA JUNTA       PTSUNNY   64  27  24 N25G38    30.12F                  
LAMAR          FAIR      65  23  20 N33G52    30.06F                  
SPRINGFIELD      N/A     60  29  30 N28G40    30.10F                  
$$